Regional Weather Roundup
Issued by NWS Sterling, VA

Home | Current Version | Previous Version | Text Only | Print | Product List | Glossary Off
Versions: 1 2 3 4 5 6 7 8 9 10 11 12 13 14 15 16 17 18 19 20 21 22 23 24 25 26 27 28

000
ASUS41 KLWX 242111
RWRLWX

REGIONAL WEATHER ROUNDUP
NATIONAL WEATHER SERVICE BALTIMORE MD/WASHINGTON DC
500 PM EDT SAT JUN 24 2017

Note: "FAIR" indicates few or no clouds below 12,000 feet
with no significant weather and/or obstructions to visibility.
 TC=TEMPERATURE CELSIUS

 * =Non NWS site. Station does not report precipitation (e.g. rain,
    snow, etc.), thunder, or fog.

DCZ001-MDZ009-015-VAZ040>042-051-053>054-242200-
WASHINGTON METRO

CITY           SKY/WX    TMP DP  RH WIND       PRES   REMARKS
WASHINGTON NAT PTSUNNY   88  59  37 W13G18    29.89R
DULLES         MOSUNNY   85  57  38 W9        29.90S
ANDREWS AFB    MOSUNNY   85  57  39 W9        29.89R
FT BELVOIR     MOSUNNY   87  56  34 W8        29.89R
QUANTICO       SUNNY     89  58  34 N8        29.90R
COLLEGE PARK*  SUNNY     85  56  36 NW10G16   29.89R
LEESBURG*      SUNNY    N/A N/A N/A W8        29.92S
MANASSAS*      MOSUNNY   86  58  38 W14       29.91R
GAITHERSBURG*  MOSUNNY   82  60  47 NW9       29.92R

$$

MDZ006>007-011-014-242200-
BALTIMORE METRO

CITY           SKY/WX    TMP DP  RH WIND       PRES   REMARKS
BWI AIRPORT    MOSUNNY   86  58  38 W15       29.88R
MD SCIENCE CTR   N/A     89  58  34 MISG      29.87R
MARTIN STATE   PTSUNNY   88  61  40 W8G18     29.88R
ANNAPOLIS      MOSUNNY   85  62  46 W7        29.88R
FORT MEADE*    MOSUNNY   82  61  47 W9        29.91R

$$

MDZ012-015-019>023-242200-
MARYLAND EASTERN SHORE

CITY           SKY/WX    TMP DP  RH WIND       PRES   REMARKS
OCEAN CITY     MOSUNNY   88  65  46 W9        29.87S HX  90
SALISBURY      MOSUNNY   86  65  49 SW12      29.87S
BAY BRIDGE AP* MOSUNNY   84  64  51 W10       29.88R
CAMBRIDGE*     PTSUNNY   88  64  45 W8        29.88R
EASTON*        MOSUNNY   88  59  37 NW9       29.91S

$$

MDZ017>025-242200-
SOUTHERN MARYLAND

CITY           SKY/WX    TMP DP  RH WIND       PRES   REMARKS
PATUXENT RIVER PTSUNNY   87  65  47 W7        29.88R
ST INIGOES     MOSUNNY   87  67  51 W8        29.87S HX  90
LEONARDTOWN*   MOSUNNY   86  61  42 NW6       29.90S

$$

MDZ003>005-242200-
NORTH CENTRAL MARYLAND

CITY           SKY/WX    TMP DP  RH WIND       PRES   REMARKS
FREDERICK*     SUNNY     86  54  32 W12       29.92S
HAGERSTOWN APT PTSUNNY   83  60  45 W9        29.89S
WESTMINSTER*   NOT AVBL

$$

MDZ501>502-242200-
WESTERN MARYLAND

CITY           SKY/WX    TMP DP  RH WIND       PRES   REMARKS
OAKLAND*       NOT AVBL
CUMBERLAND*    SUNNY     82  54  36 SW6       29.94F

$$

VAZ025>031-242200-
SHENANDOAH VALLEY

CITY           SKY/WX    TMP DP  RH WIND       PRES   REMARKS
WINCHESTER*    MOSUNNY   81  55  41 W14       29.92S
FRONT ROYAL*   PTSUNNY   82  55  39 W9G18     29.91F
LURAY*         PTSUNNY   81  55  41 SW6       29.93S
NEW MARKET*    PTSUNNY   81  55  39 CALM      29.92S
STAUNTON*      MOSUNNY   81  58  44 S8        29.96S
WAYNESBORO*    MOSUNNY   81  62  53 SW8       29.96F

$$

WVZ021-048>050-054>055-242200-
EASTERN WEST VIRGINIA PANHANDLE

CITY           SKY/WX    TMP DP  RH WIND       PRES   REMARKS
MARTINSBURG    MOSUNNY   83  57  41 W12G18    29.90S
PETERSBURG*    MOSUNNY   83  56  40 W12       29.95S

$$

VAZ036>039-050-242200-
CENTRAL FOOTHILLS

CITY           SKY/WX    TMP DP  RH WIND       PRES   REMARKS
CHARLOTTESVILL MOSUNNY   86  57  37 VRB3      29.92S
CULPEPER*      MOSUNNY   85  58  40 NW7       29.92S
ORANGE*        SUNNY     84  59  42 W6        29.91S
GORDONSVILLE*  MOSUNNY   87  63  44 W3        29.91S
WARRENTON*     SUNNY     87  52  29 W7        29.91S

$$

VAZ055>057-242200-
NORTH AND CENTRAL PIEDMONT

CITY           SKY/WX    TMP DP  RH WIND       PRES   REMARKS
FREDERICKSBRG* SUNNY     88  60  38 NW7       29.89R
STAFFORD*      SUNNY     87  55  32 NW8       29.94S

$$

NCZ024-NYZ072-PAZ021-071-VAZ022-071-242200-
OTHER REGIONAL OBSERVATIONS

CITY           SKY/WX    TMP DP  RH WIND       PRES   REMARKS
NEW YORK CITY  CLOUDY    82  53  36 VRB3      29.82R
PHILADELPHIA   PTSUNNY   86  56  35 W17       29.84R
PITTSBURGH     MOSUNNY   78  58  49 W13G18    29.92R
ROANOKE        PTSUNNY   85  61  44 W12G21    29.96F
RICHMOND       PTSUNNY   88  65  46 W10       29.89S HX  90
RALEIGH        CLOUDY    88  71  57 SW6       29.90F HX  94

$$

ANZ530>537-242200-
MARINE OBSERVATIONS

STATION/POSITION TIME  TEMP    WIND        PRES
                       AIR SEA DIR/SP/G
                 (UTC) (F)     (DEG/KT/KT) (MB)
THOMAS PT LIGHT  2100   83 78  300/  9/ 10   N/A
BALT KEY BRIDGE  2036   83     270/ 12/ 16 1011.2R
COVE POINT       2036   85     340/  8/ 14 1012.3R
LEWISETTA        2036   84 78   20/  4/  6 1011.7R
SOLOMONS ISLAND  2036   86 77  290/  5/  8   N/A
PINEY POINT      2036          350/  4/  4   N/A

$$





USA.gov is the U.S. government's official web portal to all federal, state and local government web resources and services.